Time,TemperatureF,DewpointF,PressureIn,WindDirection,WindDirectionDegrees,WindSpeedMPH,WindSpeedGustMPH,Humidity,HourlyPrecipIn,Conditions,Clouds,dailyrainin,SoftwareType,DateUTC
2013-07-27 00:01:00,63.7,61.9,30.05,South,188,0.0,0.0,94,0.00,,,0.00,meteobridge,2013-07-27 04:01:00,
2013-07-27 00:02:00,63.7,61.9,30.05,South,188,0.0,0.0,94,0.00,,,0.00,meteobridge,2013-07-27 04:02:00,
2013-07-27 00:03:00,63.7,61.9,30.05,South,188,0.9,0.9,94,0.00,,,0.00,meteobridge,2013-07-27 04:03:00,
2013-07-27 00:04:00,63.7,61.9,30.05,South,188,0.0,2.0,94,0.00,,,0.00,meteobridge,2013-07-27 04:04:00,
2013-07-27 00:07:00,63.5,61.7,30.05,South,188,0.0,0.0,94,0.00,,,0.00,meteobridge,2013-07-27 04:07:00,
2013-07-27 00:13:00,63.3,61.5,30.05,South,188,0.0,0.0,94,0.00,,,0.00,meteobridge,2013-07-27 04:13:00,
2013-07-27 00:19:00,63.3,61.5,30.05,South,188,0.0,0.0,94,0.00,,,0.00,meteobridge,2013-07-27 04:19:00,
2013-07-27 00:24:00,63.1,61.3,30.05,South,188,0.0,0.0,94,0.00,,,0.00,meteobridge,2013-07-27 04:24:00,
2013-07-27 00:30:00,63.0,61.2,30.05,South,188,0.0,0.0,94,0.00,,,0.00,meteobridge,2013-07-27 04:30:00,
2013-07-27 00:35:00,63.0,61.2,30.05,South,188,0.0,0.0,94,0.00,,,0.00,meteobridge,2013-07-27 04:35:00,
2013-07-27 00:41:00,62.8,61.3,30.05,South,188,0.0,0.0,95,0.00,,,0.00,meteobridge,2013-07-27 04:41:00,
2013-07-27 00:46:00,62.8,61.3,30.04,South,188,0.0,0.0,95,0.00,,,0.00,meteobridge,2013-07-27 04:46:00,
2013-07-27 00:51:00,62.4,61.0,30.04,South,188,0.0,0.0,95,0.00,,,0.00,meteobridge,2013-07-27 04:51:00,
2013-07-27 00:57:00,62.4,61.0,30.05,South,188,0.0,0.0,95,0.00,,,0.00,meteobridge,2013-07-27 04:57:00,
2013-07-27 01:02:00,62.2,60.8,30.04,South,188,0.0,0.0,95,0.00,,,0.00,meteobridge,2013-07-27 05:02:00,
2013-07-27 01:07:00,62.2,60.8,30.04,South,188,0.0,0.0,95,0.00,,,0.00,meteobridge,2013-07-27 05:07:00,
2013-07-27 01:12:00,62.1,60.6,30.04,South,188,0.0,0.0,95,0.00,,,0.00,meteobridge,2013-07-27 05:12:00,
2013-07-27 01:18:00,62.1,60.6,30.04,South,188,0.0,0.0,95,0.00,,,0.00,meteobridge,2013-07-27 05:18:00,
2013-07-27 01:23:00,62.1,61.0,30.04,South,188,0.0,0.0,96,0.00,,,0.00,meteobridge,2013-07-27 05:23:00,
2013-07-27 01:29:00,61.9,60.8,30.04,South,188,0.0,0.0,96,0.00,,,0.00,meteobridge,2013-07-27 05:29:00,
2013-07-27 01:34:00,61.9,60.8,30.04,South,188,0.0,0.0,96,0.00,,,0.00,meteobridge,2013-07-27 05:34:00,
2013-07-27 01:39:00,61.9,60.8,30.04,South,188,0.0,0.0,96,0.00,,,0.00,meteobridge,2013-07-27 05:39:00,
2013-07-27 01:44:00,61.9,60.8,30.04,South,188,0.0,0.0,96,0.00,,,0.00,meteobridge,2013-07-27 05:44:00,
2013-07-27 01:50:00,61.7,60.6,30.04,South,188,0.0,0.0,96,0.00,,,0.00,meteobridge,2013-07-27 05:50:00,
2013-07-27 01:55:00,61.7,60.6,30.03,South,188,0.0,0.0,96,0.00,,,0.00,meteobridge,2013-07-27 05:55:00,
2013-07-27 02:01:00,61.5,60.4,30.03,South,188,0.0,0.0,96,0.00,,,0.00,meteobridge,2013-07-27 06:01:00,
2013-07-27 02:06:00,61.3,60.3,30.03,South,188,0.0,0.0,96,0.00,,,0.00,meteobridge,2013-07-27 06:06:00,
2013-07-27 02:11:00,61.3,60.3,30.03,South,188,0.0,0.0,96,0.00,,,0.00,meteobridge,2013-07-27 06:11:00,
2013-07-27 02:17:00,61.3,60.3,30.03,South,188,0.0,0.0,96,0.00,,,0.00,meteobridge,2013-07-27 06:17:00,
2013-07-27 02:22:00,61.2,60.1,30.03,South,188,0.0,0.0,96,0.00,,,0.00,meteobridge,2013-07-27 06:22:00,
2013-07-27 02:27:00,61.2,60.1,30.03,South,188,0.0,0.0,96,0.00,,,0.00,meteobridge,2013-07-27 06:27:00,
2013-07-27 02:33:00,61.2,60.1,30.04,South,188,0.0,0.0,96,0.00,,,0.00,meteobridge,2013-07-27 06:33:00,
2013-07-27 02:38:00,61.2,60.1,30.04,South,188,0.0,0.0,96,0.00,,,0.00,meteobridge,2013-07-27 06:38:00,
2013-07-27 02:43:00,61.0,59.9,30.04,South,188,0.0,0.0,96,0.00,,,0.00,meteobridge,2013-07-27 06:43:00,
2013-07-27 02:49:00,61.0,59.9,30.04,South,188,0.0,0.0,96,0.00,,,0.00,meteobridge,2013-07-27 06:49:00,
2013-07-27 02:54:00,60.8,59.7,30.04,South,188,0.0,0.0,96,0.00,,,0.00,meteobridge,2013-07-27 06:54:00,
2013-07-27 02:59:00,60.8,59.7,30.03,South,188,0.0,0.0,96,0.00,,,0.00,meteobridge,2013-07-27 06:59:00,
2013-07-27 03:04:00,60.6,59.5,30.03,South,188,0.0,0.0,96,0.00,,,0.00,meteobridge,2013-07-27 07:04:00,
2013-07-27 03:09:00,60.6,59.7,30.03,South,188,0.0,0.0,97,0.00,,,0.00,meteobridge,2013-07-27 07:09:00,
2013-07-27 03:14:00,60.6,59.7,30.03,South,188,0.0,0.0,97,0.00,,,0.00,meteobridge,2013-07-27 07:14:00,
2013-07-27 03:20:00,60.6,59.7,30.03,South,188,0.0,0.0,97,0.00,,,0.00,meteobridge,2013-07-27 07:20:00,
2013-07-27 03:25:00,60.6,59.7,30.03,South,188,0.0,0.0,97,0.00,,,0.00,meteobridge,2013-07-27 07:25:00,
2013-07-27 03:31:00,60.4,59.5,30.03,South,188,0.0,0.0,97,0.00,,,0.00,meteobridge,2013-07-27 07:31:00,
2013-07-27 03:36:00,60.4,59.5,30.03,South,188,0.0,0.0,97,0.00,,,0.00,meteobridge,2013-07-27 07:36:00,
2013-07-27 03:41:00,60.4,59.4,30.03,South,188,0.0,0.0,96,0.00,,,0.00,meteobridge,2013-07-27 07:41:00,
2013-07-27 03:46:00,60.3,59.4,30.03,South,188,0.0,0.0,97,0.00,,,0.00,meteobridge,2013-07-27 07:46:00,
2013-07-27 03:52:00,60.3,59.4,30.03,South,188,0.0,0.0,97,0.00,,,0.00,meteobridge,2013-07-27 07:52:00,
2013-07-27 03:57:00,60.3,59.4,30.03,South,188,0.0,0.0,97,0.00,,,0.00,meteobridge,2013-07-27 07:57:00,
2013-07-27 04:03:00,60.1,59.2,30.03,South,188,0.0,0.0,97,0.00,,,0.00,meteobridge,2013-07-27 08:03:00,
2013-07-27 04:09:00,60.1,59.2,30.03,South,188,0.0,0.0,97,0.00,,,0.00,meteobridge,2013-07-27 08:09:00,
2013-07-27 04:14:00,60.1,59.2,30.03,South,188,0.0,0.0,97,0.00,,,0.00,meteobridge,2013-07-27 08:14:00,
2013-07-27 04:19:00,60.1,59.2,30.03,South,188,0.0,0.0,97,0.00,,,0.00,meteobridge,2013-07-27 08:19:00,
2013-07-27 04:24:00,59.9,59.0,30.03,South,188,0.0,0.0,97,0.00,,,0.00,meteobridge,2013-07-27 08:24:00,
2013-07-27 04:30:00,59.7,58.8,30.03,South,188,0.0,0.0,97,0.00,,,0.00,meteobridge,2013-07-27 08:30:00,
2013-07-27 04:35:00,59.7,58.8,30.03,South,188,0.0,0.0,97,0.00,,,0.00,meteobridge,2013-07-27 08:35:00,
2013-07-27 04:40:00,59.7,58.8,30.03,South,188,0.0,0.0,97,0.00,,,0.00,meteobridge,2013-07-27 08:40:00,
2013-07-27 04:45:00,59.7,58.8,30.03,South,188,0.0,0.0,97,0.00,,,0.00,meteobridge,2013-07-27 08:45:00,
2013-07-27 04:51:00,59.5,58.6,30.03,South,188,0.0,0.0,97,0.00,,,0.00,meteobridge,2013-07-27 08:51:00,
2013-07-27 04:56:00,59.5,58.6,30.03,South,188,0.0,0.0,97,0.00,,,0.00,meteobridge,2013-07-27 08:56:00,
2013-07-27 05:01:00,59.5,58.6,30.03,South,188,0.0,0.0,97,0.00,,,0.00,meteobridge,2013-07-27 09:01:00,
2013-07-27 05:06:00,59.4,58.5,30.03,South,188,0.0,0.0,97,0.00,,,0.00,meteobridge,2013-07-27 09:06:00,
2013-07-27 05:12:00,59.4,58.5,30.03,South,188,0.0,0.0,97,0.00,,,0.00,meteobridge,2013-07-27 09:12:00,
2013-07-27 05:17:00,59.4,58.5,30.03,South,188,0.0,0.0,97,0.00,,,0.00,meteobridge,2013-07-27 09:17:00,
2013-07-27 05:23:00,59.4,58.5,30.04,South,188,0.0,0.0,97,0.00,,,0.00,meteobridge,2013-07-27 09:23:00,
2013-07-27 05:28:00,59.4,58.5,30.04,South,188,0.0,0.0,97,0.00,,,0.00,meteobridge,2013-07-27 09:28:00,
2013-07-27 05:34:00,59.4,58.5,30.04,South,188,0.0,0.0,97,0.00,,,0.00,meteobridge,2013-07-27 09:34:00,
2013-07-27 05:39:00,59.4,58.5,30.04,South,188,0.0,0.0,97,0.00,,,0.00,meteobridge,2013-07-27 09:39:00,
2013-07-27 05:44:00,59.4,58.5,30.04,South,188,0.0,0.0,97,0.00,,,0.00,meteobridge,2013-07-27 09:44:00,
2013-07-27 05:50:00,59.4,58.5,30.05,South,188,0.0,0.0,97,0.00,,,0.00,meteobridge,2013-07-27 09:50:00,
2013-07-27 05:55:00,59.4,58.5,30.05,South,188,0.0,0.0,97,0.00,,,0.00,meteobridge,2013-07-27 09:55:00,
2013-07-27 06:00:00,59.4,58.8,30.05,South,188,0.0,0.0,98,0.00,,,0.00,meteobridge,2013-07-27 10:00:00,
2013-07-27 06:05:00,59.4,58.5,30.05,South,188,0.0,0.0,97,0.00,,,0.00,meteobridge,2013-07-27 10:05:00,
2013-07-27 06:11:00,59.4,58.5,30.05,South,188,0.0,0.0,97,0.00,,,0.00,meteobridge,2013-07-27 10:11:00,
2013-07-27 06:16:00,59.4,58.5,30.05,South,188,0.0,0.0,97,0.00,,,0.00,meteobridge,2013-07-27 10:16:00,
2013-07-27 06:21:00,59.4,58.5,30.05,South,188,0.0,0.0,97,0.00,,,0.00,meteobridge,2013-07-27 10:21:00,
2013-07-27 06:26:00,59.2,58.3,30.05,South,188,0.0,0.0,97,0.00,,,0.00,meteobridge,2013-07-27 10:26:00,
2013-07-27 06:32:00,59.4,58.5,30.05,South,188,0.0,0.0,97,0.00,,,0.00,meteobridge,2013-07-27 10:32:00,
2013-07-27 06:37:00,59.4,58.8,30.05,South,188,0.0,0.0,98,0.00,,,0.00,meteobridge,2013-07-27 10:37:00,
2013-07-27 06:42:00,59.4,58.8,30.05,South,188,0.0,0.0,98,0.00,,,0.00,meteobridge,2013-07-27 10:42:00,
2013-07-27 06:48:00,59.5,59.0,30.05,South,188,0.0,0.0,98,0.00,,,0.00,meteobridge,2013-07-27 10:48:00,
2013-07-27 06:53:00,59.5,59.0,30.05,South,188,0.0,0.0,98,0.00,,,0.00,meteobridge,2013-07-27 10:53:00,
2013-07-27 06:59:00,59.7,59.2,30.05,South,188,0.0,0.0,98,0.00,,,0.00,meteobridge,2013-07-27 10:59:00,
2013-07-27 07:04:00,60.1,59.5,30.05,South,188,0.0,0.0,98,0.00,,,0.00,meteobridge,2013-07-27 11:04:00,
2013-07-27 07:10:00,60.3,59.7,30.05,South,188,0.0,0.0,98,0.00,,,0.00,meteobridge,2013-07-27 11:10:00,
2013-07-27 07:15:00,60.3,59.7,30.05,South,188,0.0,0.0,98,0.00,,,0.00,meteobridge,2013-07-27 11:15:00,
2013-07-27 07:20:00,60.4,60.1,30.05,South,188,0.0,0.0,99,0.00,,,0.00,meteobridge,2013-07-27 11:20:00,
2013-07-27 07:25:00,60.8,60.4,30.05,South,188,0.0,0.0,99,0.00,,,0.00,meteobridge,2013-07-27 11:25:00,
2013-07-27 07:30:00,61.0,60.6,30.05,South,188,0.0,0.0,99,0.00,,,0.00,meteobridge,2013-07-27 11:30:00,
2013-07-27 07:36:00,61.3,61.0,30.05,South,188,0.0,0.0,99,0.00,,,0.00,meteobridge,2013-07-27 11:36:00,
2013-07-27 07:42:00,61.5,61.2,30.05,South,179,0.0,0.0,99,0.00,,,0.00,meteobridge,2013-07-27 11:42:00,
2013-07-27 07:47:00,62.1,61.7,30.05,South,179,0.0,0.0,99,0.00,,,0.00,meteobridge,2013-07-27 11:47:00,
2013-07-27 07:52:00,62.4,62.1,30.05,South,179,0.0,0.0,99,0.00,,,0.00,meteobridge,2013-07-27 11:52:00,
2013-07-27 07:57:00,63.0,62.6,30.06,SSE,160,0.0,0.0,99,0.00,,,0.00,meteobridge,2013-07-27 11:57:00,
2013-07-27 08:03:00,63.3,63.0,30.06,SSE,161,0.0,0.0,99,0.00,,,0.00,meteobridge,2013-07-27 12:03:00,
2013-07-27 08:08:00,63.7,63.3,30.05,South,186,0.0,0.9,99,0.00,,,0.00,meteobridge,2013-07-27 12:08:00,
2013-07-27 08:14:00,64.2,63.9,30.06,SSE,162,0.0,2.0,99,0.00,,,0.00,meteobridge,2013-07-27 12:14:00,
2013-07-27 08:19:00,64.6,64.2,30.05,SE,143,0.0,0.0,99,0.00,,,0.00,meteobridge,2013-07-27 12:19:00,
2013-07-27 08:25:00,65.1,64.8,30.06,West,274,0.9,2.9,99,0.00,,,0.00,meteobridge,2013-07-27 12:25:00,
2013-07-27 08:30:00,65.7,64.4,30.06,West,281,0.0,0.0,96,0.00,,,0.00,meteobridge,2013-07-27 12:30:00,
2013-07-27 08:35:00,66.2,64.8,30.06,West,281,0.9,2.0,95,0.00,,,0.00,meteobridge,2013-07-27 12:35:00,
2013-07-27 08:41:00,66.6,64.8,30.06,West,271,0.0,0.9,94,0.00,,,0.00,meteobridge,2013-07-27 12:41:00,
2013-07-27 08:46:00,67.3,64.9,30.06,West,271,0.0,0.9,92,0.00,,,0.00,meteobridge,2013-07-27 12:46:00,
2013-07-27 08:51:00,67.8,64.8,30.05,SSE,155,0.0,0.9,90,0.00,,,0.00,meteobridge,2013-07-27 12:51:00,
2013-07-27 08:57:00,68.2,64.4,30.06,SSE,153,0.0,2.0,88,0.00,,,0.00,meteobridge,2013-07-27 12:57:00,
2013-07-27 09:02:00,68.5,64.8,30.06,West,279,0.0,2.0,88,0.00,,,0.00,meteobridge,2013-07-27 13:02:00,
2013-07-27 09:07:00,69.1,64.0,30.06,South,171,0.0,0.9,84,0.00,,,0.00,meteobridge,2013-07-27 13:07:00,
2013-07-27 09:12:00,69.4,63.0,30.06,West,277,0.9,4.0,80,0.00,,,0.00,meteobridge,2013-07-27 13:12:00,
2013-07-27 09:17:00,70.0,63.1,30.06,WNW,290,2.0,2.0,79,0.00,,,0.00,meteobridge,2013-07-27 13:17:00,
2013-07-27 09:23:00,70.5,62.6,30.06,WSW,255,0.9,4.0,76,0.00,,,0.00,meteobridge,2013-07-27 13:23:00,
2013-07-27 09:28:00,70.9,63.3,30.05,West,276,0.9,4.0,77,0.00,,,0.00,meteobridge,2013-07-27 13:28:00,
2013-07-27 09:33:00,71.2,63.0,30.06,WSW,257,0.0,4.0,75,0.00,,,0.00,meteobridge,2013-07-27 13:33:00,
2013-07-27 09:39:00,71.6,63.3,30.05,WSW,238,0.0,2.0,75,0.00,,,0.00,meteobridge,2013-07-27 13:39:00,
2013-07-27 09:44:00,72.0,64.0,30.06,WSW,238,0.0,2.0,76,0.00,,,0.00,meteobridge,2013-07-27 13:44:00,
2013-07-27 09:49:00,72.1,64.2,30.06,West,274,0.0,2.0,76,0.00,,,0.00,meteobridge,2013-07-27 13:49:00,
2013-07-27 09:55:00,72.7,64.8,30.06,WSW,254,0.0,0.9,76,0.00,,,0.00,meteobridge,2013-07-27 13:55:00,
2013-07-27 10:00:00,73.0,64.9,30.06,South,177,0.0,2.9,76,0.00,,,0.00,meteobridge,2013-07-27 14:00:00,
2013-07-27 10:05:00,73.2,64.4,30.06,WNW,286,0.9,4.9,74,0.00,,,0.00,meteobridge,2013-07-27 14:05:00,
2013-07-27 10:10:00,73.6,64.8,30.06,South,169,0.9,2.9,74,0.00,,,0.00,meteobridge,2013-07-27 14:10:00,
2013-07-27 10:15:00,73.8,64.2,30.06,West,279,2.0,4.0,72,0.00,,,0.00,meteobridge,2013-07-27 14:15:00,
2013-07-27 10:20:00,74.1,63.7,30.06,WNW,287,0.9,2.9,70,0.00,,,0.00,meteobridge,2013-07-27 14:20:00,
2013-07-27 10:27:00,74.5,64.9,30.06,West,269,2.9,2.9,72,0.00,,,0.00,meteobridge,2013-07-27 14:27:00,
2013-07-27 10:32:00,74.7,64.2,30.06,NW,309,0.0,2.9,70,0.00,,,0.00,meteobridge,2013-07-27 14:32:00,
2013-07-27 10:37:00,74.8,64.4,30.06,WSW,257,2.0,2.0,70,0.00,,,0.00,meteobridge,2013-07-27 14:37:00,
2013-07-27 10:43:00,75.0,64.6,30.06,SE,142,0.9,6.0,70,0.00,,,0.00,meteobridge,2013-07-27 14:43:00,
2013-07-27 10:48:00,75.2,63.5,30.06,West,278,0.0,2.0,67,0.00,,,0.00,meteobridge,2013-07-27 14:48:00,
2013-07-27 10:53:00,75.4,64.9,30.06,South,169,0.0,2.9,70,0.00,,,0.00,meteobridge,2013-07-27 14:53:00,
2013-07-27 10:58:00,75.4,63.1,30.06,NW,321,2.9,4.9,66,0.00,,,0.00,meteobridge,2013-07-27 14:58:00,
2013-07-27 11:03:00,75.6,63.9,30.06,WNW,296,2.0,2.9,67,0.00,,,0.00,meteobridge,2013-07-27 15:03:00,
2013-07-27 11:08:00,75.7,62.8,30.06,NW,317,0.9,4.0,64,0.00,,,0.00,meteobridge,2013-07-27 15:08:00,
2013-07-27 11:14:00,75.9,62.8,30.06,NW,317,0.0,4.9,64,0.00,,,0.00,meteobridge,2013-07-27 15:14:00,
2013-07-27 11:19:00,76.3,63.1,30.06,SSE,154,0.0,4.9,64,0.00,,,0.00,meteobridge,2013-07-27 15:19:00,
2013-07-27 11:24:00,76.3,63.7,30.06,South,173,0.9,2.9,65,0.00,,,0.00,meteobridge,2013-07-27 15:24:00,
2013-07-27 11:29:00,76.3,64.6,30.06,South,177,2.0,2.0,67,0.00,,,0.00,meteobridge,2013-07-27 15:29:00,
2013-07-27 11:34:00,76.1,63.9,30.06,SSE,155,0.0,2.9,66,0.00,,,0.00,meteobridge,2013-07-27 15:34:00,
2013-07-27 11:40:00,75.9,63.3,30.06,SE,143,0.0,2.0,65,0.00,,,0.00,meteobridge,2013-07-27 15:40:00,
2013-07-27 11:45:00,76.3,62.2,30.06,South,170,2.9,4.9,62,0.00,,,0.00,meteobridge,2013-07-27 15:45:00,
2013-07-27 11:50:00,77.0,66.4,30.06,WSW,258,2.0,2.9,70,0.00,,,0.00,meteobridge,2013-07-27 15:50:00,
2013-07-27 11:56:00,77.2,63.7,30.06,South,188,0.0,0.9,63,0.00,,,0.00,meteobridge,2013-07-27 15:56:00,
2013-07-27 12:01:00,77.4,63.3,30.06,SW,230,0.0,2.9,62,0.00,,,0.00,meteobridge,2013-07-27 16:01:00,
2013-07-27 12:06:00,77.7,63.7,30.06,SW,218,0.0,2.0,62,0.00,,,0.00,meteobridge,2013-07-27 16:06:00,
2013-07-27 12:12:00,77.7,64.0,30.06,South,177,0.9,2.0,63,0.00,,,0.00,meteobridge,2013-07-27 16:12:00,
2013-07-27 12:17:00,78.1,64.4,30.06,SSE,155,0.9,4.0,63,0.00,,,0.00,meteobridge,2013-07-27 16:17:00,
2013-07-27 12:22:00,78.3,62.8,30.06,South,170,2.9,4.9,59,0.00,,,0.00,meteobridge,2013-07-27 16:22:00,
2013-07-27 12:27:00,78.6,64.9,30.05,SSE,149,4.0,6.0,63,0.00,,,0.00,meteobridge,2013-07-27 16:27:00,
2013-07-27 12:32:00,79.0,64.8,30.05,WSW,249,2.0,2.9,62,0.00,,,0.00,meteobridge,2013-07-27 16:32:00,
2013-07-27 12:38:00,79.2,63.7,30.05,SSE,149,4.0,6.0,59,0.00,,,0.00,meteobridge,2013-07-27 16:38:00,
2013-07-27 12:43:00,79.2,65.5,30.05,South,174,2.0,2.9,63,0.00,,,0.00,meteobridge,2013-07-27 16:43:00,
2013-07-27 12:48:00,78.8,62.8,30.05,SSW,207,0.9,6.0,58,0.00,,,0.00,meteobridge,2013-07-27 16:48:00,
2013-07-27 12:53:00,79.0,64.4,30.04,SSE,164,4.0,8.9,61,0.00,,,0.00,meteobridge,2013-07-27 16:53:00,
2013-07-27 12:58:00,79.2,65.5,30.04,South,179,0.0,4.0,63,0.00,,,0.00,meteobridge,2013-07-27 16:58:00,
2013-07-27 13:04:00,79.3,66.0,30.04,South,179,0.0,4.0,64,0.00,,,0.00,meteobridge,2013-07-27 17:04:00,
2013-07-27 13:10:00,79.7,66.0,30.04,West,262,0.0,2.0,63,0.00,,,0.00,meteobridge,2013-07-27 17:10:00,
2013-07-27 13:15:00,79.5,64.4,30.04,South,183,0.0,6.9,60,0.00,,,0.00,meteobridge,2013-07-27 17:15:00,
2013-07-27 13:20:00,79.5,66.2,30.04,SSE,148,2.0,4.0,64,0.00,,,0.00,meteobridge,2013-07-27 17:20:00,
2013-07-27 13:26:00,79.5,63.9,30.04,SSE,163,2.9,8.1,59,0.00,,,0.00,meteobridge,2013-07-27 17:26:00,
2013-07-27 13:31:00,79.9,63.9,30.04,SSE,148,2.0,8.9,58,0.00,,,0.00,meteobridge,2013-07-27 17:31:00,
2013-07-27 13:36:00,80.1,65.5,30.03,SSW,200,0.0,2.0,61,0.00,,,0.00,meteobridge,2013-07-27 17:36:00,
2013-07-27 13:42:00,80.1,63.9,30.03,SSE,156,0.0,2.0,58,0.00,,,0.00,meteobridge,2013-07-27 17:42:00,
2013-07-27 13:47:00,80.2,66.6,30.03,SSE,155,0.0,4.9,63,0.00,,,0.00,meteobridge,2013-07-27 17:47:00,
2013-07-27 13:52:00,80.2,67.8,30.03,West,269,0.9,2.0,66,0.00,,,0.00,meteobridge,2013-07-27 17:52:00,
2013-07-27 13:57:00,80.4,66.7,30.03,WSW,241,2.0,2.9,63,0.00,,,0.00,meteobridge,2013-07-27 17:57:00,
2013-07-27 14:02:00,80.2,65.5,30.03,SW,223,0.0,0.9,61,0.00,,,0.00,meteobridge,2013-07-27 18:02:00,
2013-07-27 14:07:00,80.2,64.6,30.03,NNW,332,0.0,2.9,59,0.00,,,0.00,meteobridge,2013-07-27 18:07:00,
2013-07-27 14:12:00,80.6,64.4,30.03,SSE,165,2.0,8.9,58,0.00,,,0.00,meteobridge,2013-07-27 18:12:00,
2013-07-27 14:18:00,81.1,64.9,30.03,South,178,2.9,4.0,58,0.00,,,0.00,meteobridge,2013-07-27 18:18:00,
2013-07-27 14:23:00,81.5,66.7,30.02,West,259,2.0,2.9,61,0.00,,,0.00,meteobridge,2013-07-27 18:23:00,
2013-07-27 14:28:00,81.3,65.1,30.03,WNW,290,0.0,2.0,58,0.00,,,0.00,meteobridge,2013-07-27 18:28:00,
2013-07-27 14:33:00,81.3,64.6,30.02,West,267,0.9,2.0,57,0.00,,,0.00,meteobridge,2013-07-27 18:33:00,
2013-07-27 14:38:00,81.3,65.7,30.02,SSE,153,2.0,6.0,59,0.00,,,0.00,meteobridge,2013-07-27 18:38:00,
2013-07-27 14:44:00,81.3,65.7,30.02,South,188,0.0,6.9,59,0.00,,,0.00,meteobridge,2013-07-27 18:44:00,
2013-07-27 14:49:00,81.3,65.7,30.02,SSE,165,6.9,6.9,59,0.00,,,0.00,meteobridge,2013-07-27 18:49:00,
2013-07-27 14:54:00,80.8,63.1,30.02,South,179,2.0,4.9,55,0.00,,,0.00,meteobridge,2013-07-27 18:54:00,
2013-07-27 15:00:00,80.4,64.8,30.02,South,173,0.0,6.9,59,0.00,,,0.00,meteobridge,2013-07-27 19:00:00,
2013-07-27 15:05:00,80.8,65.1,30.02,SE,142,4.0,6.0,59,0.00,,,0.00,meteobridge,2013-07-27 19:05:00,
2013-07-27 15:10:00,81.0,66.2,30.01,South,179,0.9,2.9,61,0.00,,,0.00,meteobridge,2013-07-27 19:10:00,
2013-07-27 15:16:00,81.1,66.4,30.01,SW,217,0.9,0.9,61,0.00,,,0.00,meteobridge,2013-07-27 19:16:00,
2013-07-27 15:21:00,81.1,66.4,30.01,SSE,159,6.9,6.9,61,0.00,,,0.00,meteobridge,2013-07-27 19:21:00,
2013-07-27 15:27:00,80.8,65.1,30.01,West,271,0.0,2.0,59,0.00,,,0.00,meteobridge,2013-07-27 19:27:00,
2013-07-27 15:32:00,80.6,66.4,30.01,South,189,0.0,4.9,62,0.00,,,0.00,meteobridge,2013-07-27 19:32:00,
2013-07-27 15:37:00,80.8,66.6,30.01,South,181,4.0,6.9,62,0.00,,,0.00,meteobridge,2013-07-27 19:37:00,
2013-07-27 15:42:00,81.1,66.0,30.01,SSE,162,6.9,6.9,60,0.00,,,0.00,meteobridge,2013-07-27 19:42:00,
2013-07-27 15:47:00,81.3,66.0,30.01,SSW,193,2.0,8.1,60,0.00,,,0.00,meteobridge,2013-07-27 19:47:00,
2013-07-27 15:52:00,81.5,65.8,30.01,SSW,200,0.9,2.9,59,0.00,,,0.00,meteobridge,2013-07-27 19:52:00,
2013-07-27 15:58:00,81.7,64.4,30.01,South,176,0.9,8.9,56,0.00,,,0.00,meteobridge,2013-07-27 19:58:00,
2013-07-27 16:03:00,81.3,65.7,30.00,South,171,0.0,0.9,59,0.00,,,0.00,meteobridge,2013-07-27 20:03:00,
2013-07-27 16:08:00,81.3,65.7,30.00,SSE,167,2.0,4.9,59,0.00,,,0.00,meteobridge,2013-07-27 20:08:00,
2013-07-27 16:14:00,81.3,65.1,30.00,SSE,168,4.9,8.9,58,0.00,,,0.00,meteobridge,2013-07-27 20:14:00,
2013-07-27 16:19:00,81.0,65.8,30.00,South,172,0.0,2.9,60,0.00,,,0.00,meteobridge,2013-07-27 20:19:00,
2013-07-27 16:24:00,80.6,66.4,30.00,SSW,205,0.0,0.9,62,0.00,,,0.00,meteobridge,2013-07-27 20:24:00,
2013-07-27 16:29:00,80.4,65.7,30.00,South,190,4.0,8.1,61,0.00,,,0.00,meteobridge,2013-07-27 20:29:00,
2013-07-27 16:34:00,80.2,66.9,30.00,SSW,199,2.9,6.0,64,0.00,,,0.00,meteobridge,2013-07-27 20:34:00,
2013-07-27 16:40:00,80.1,67.3,30.00,South,181,0.9,4.0,65,0.00,,,0.00,meteobridge,2013-07-27 20:40:00,
2013-07-27 16:45:00,79.9,66.6,29.99,SSE,163,4.0,6.0,64,0.00,,,0.00,meteobridge,2013-07-27 20:45:00,
2013-07-27 16:50:00,79.5,66.7,29.99,South,173,4.0,8.9,65,0.00,,,0.00,meteobridge,2013-07-27 20:50:00,
2013-07-27 16:56:00,79.3,65.7,29.99,SSE,150,6.0,10.1,63,0.00,,,0.00,meteobridge,2013-07-27 20:56:00,
2013-07-27 17:01:00,79.3,65.7,29.99,SE,127,0.0,4.0,63,0.00,,,0.00,meteobridge,2013-07-27 21:01:00,
2013-07-27 17:06:00,79.3,66.0,29.99,SSE,161,2.9,6.9,64,0.00,,,0.00,meteobridge,2013-07-27 21:06:00,
2013-07-27 17:11:00,79.2,66.4,29.99,SW,229,6.0,6.0,65,0.00,,,0.00,meteobridge,2013-07-27 21:11:00,
2013-07-27 17:17:00,79.0,66.2,29.99,SSW,195,0.0,2.9,65,0.00,,,0.00,meteobridge,2013-07-27 21:17:00,
2013-07-27 17:22:00,79.0,65.8,29.99,South,176,2.9,6.0,64,0.00,,,0.00,meteobridge,2013-07-27 21:22:00,
2013-07-27 17:27:00,78.6,65.8,29.99,SSW,203,0.9,2.9,65,0.00,,,0.00,meteobridge,2013-07-27 21:27:00,
2013-07-27 17:32:00,78.4,65.3,29.98,SSE,152,4.9,8.1,64,0.00,,,0.00,meteobridge,2013-07-27 21:32:00,
2013-07-27 17:38:00,78.1,65.3,29.98,ESE,110,2.9,6.9,65,0.00,,,0.00,meteobridge,2013-07-27 21:38:00,
2013-07-27 17:43:00,77.7,65.8,29.98,SSE,159,2.0,4.0,67,0.00,,,0.00,meteobridge,2013-07-27 21:43:00,
2013-07-27 17:48:00,77.4,65.5,29.98,SSE,162,0.9,2.9,67,0.00,,,0.00,meteobridge,2013-07-27 21:48:00,
2013-07-27 17:54:00,77.0,65.1,29.98,SSE,155,4.0,6.9,67,0.00,,,0.00,meteobridge,2013-07-27 21:54:00,
2013-07-27 17:59:00,76.6,65.3,29.98,South,191,2.0,4.9,68,0.00,,,0.00,meteobridge,2013-07-27 21:59:00,
2013-07-27 18:04:00,76.5,66.0,29.98,SSE,159,2.0,6.9,70,0.00,,,0.00,meteobridge,2013-07-27 22:04:00,
2013-07-27 18:09:00,76.3,65.3,29.98,South,181,2.0,6.0,69,0.00,,,0.00,meteobridge,2013-07-27 22:09:00,
2013-07-27 18:15:00,76.1,65.7,29.98,SE,135,2.9,8.9,70,0.00,,,0.00,meteobridge,2013-07-27 22:15:00,
2013-07-27 18:20:00,76.1,66.0,29.98,South,178,2.0,2.9,71,0.00,,,0.00,meteobridge,2013-07-27 22:20:00,
2013-07-27 18:25:00,76.1,65.7,29.98,SSE,163,2.9,2.9,70,0.00,,,0.00,meteobridge,2013-07-27 22:25:00,
2013-07-27 18:31:00,75.9,64.9,29.98,SSE,159,2.0,4.9,69,0.00,,,0.00,meteobridge,2013-07-27 22:31:00,
2013-07-27 18:36:00,75.7,65.3,29.98,SSE,163,2.0,6.0,70,0.00,,,0.00,meteobridge,2013-07-27 22:36:00,
2013-07-27 18:41:00,75.7,65.3,29.98,SW,215,2.0,8.1,70,0.00,,,0.00,meteobridge,2013-07-27 22:41:00,
2013-07-27 18:47:00,75.6,65.5,29.98,SSE,155,2.0,2.9,71,0.00,,,0.00,meteobridge,2013-07-27 22:47:00,
2013-07-27 18:52:00,75.4,64.9,29.98,South,178,4.0,4.9,70,0.00,,,0.00,meteobridge,2013-07-27 22:52:00,
2013-07-27 18:57:00,75.2,65.1,29.98,SSW,210,0.9,4.0,71,0.00,,,0.00,meteobridge,2013-07-27 22:57:00,
2013-07-27 19:02:00,75.0,65.3,29.98,South,173,2.0,2.0,72,0.00,,,0.00,meteobridge,2013-07-27 23:02:00,
2013-07-27 19:07:00,75.0,65.3,29.98,SE,144,0.0,6.0,72,0.00,,,0.00,meteobridge,2013-07-27 23:07:00,
2013-07-27 19:12:00,74.8,65.1,29.98,South,180,0.0,6.9,72,0.00,,,0.00,meteobridge,2013-07-27 23:12:00,
2013-07-27 19:18:00,74.8,65.7,29.98,South,175,2.0,6.9,73,0.00,,,0.00,meteobridge,2013-07-27 23:18:00,
2013-07-27 19:23:00,74.7,65.8,29.98,SSE,167,6.0,8.9,74,0.00,,,0.00,meteobridge,2013-07-27 23:23:00,
2013-07-27 19:28:00,74.3,65.5,29.98,SE,132,0.0,4.0,74,0.00,,,0.00,meteobridge,2013-07-27 23:28:00,
2013-07-27 19:34:00,73.9,65.5,29.98,SSE,154,0.9,4.0,75,0.00,,,0.00,meteobridge,2013-07-27 23:34:00,
2013-07-27 19:39:00,73.8,65.3,29.98,SSW,192,0.0,4.0,75,0.00,,,0.00,meteobridge,2013-07-27 23:39:00,
2013-07-27 19:44:00,73.4,65.3,29.98,South,176,0.9,4.0,76,0.00,,,0.00,meteobridge,2013-07-27 23:44:00,
2013-07-27 19:50:00,73.2,65.1,29.98,SE,142,0.9,4.9,76,0.00,,,0.00,meteobridge,2013-07-27 23:50:00,
2013-07-27 19:55:00,72.9,65.3,29.98,South,186,4.9,6.0,77,0.00,,,0.00,meteobridge,2013-07-27 23:55:00,
2013-07-27 20:00:00,72.7,65.1,29.99,SE,145,2.0,4.0,77,0.00,,,0.00,meteobridge,2013-07-28 00:00:00,
2013-07-27 20:05:00,72.3,65.1,29.99,SSE,160,2.9,4.0,78,0.00,,,0.00,meteobridge,2013-07-28 00:05:00,
2013-07-27 20:10:00,72.1,65.3,29.99,South,179,0.0,0.0,79,0.00,,,0.00,meteobridge,2013-07-28 00:10:00,
2013-07-27 20:16:00,71.8,64.9,29.99,South,169,0.9,6.9,79,0.00,,,0.00,meteobridge,2013-07-28 00:16:00,
2013-07-27 20:21:00,71.2,64.4,29.99,SSE,168,0.9,4.0,79,0.00,,,0.00,meteobridge,2013-07-28 00:21:00,
2013-07-27 20:27:00,71.1,64.6,30.00,South,184,2.0,6.0,80,0.00,,,0.00,meteobridge,2013-07-28 00:27:00,
2013-07-27 20:32:00,70.9,64.4,30.00,South,169,0.9,4.0,80,0.00,,,0.00,meteobridge,2013-07-28 00:32:00,
2013-07-27 20:37:00,70.5,64.4,30.00,SSE,157,2.9,2.9,81,0.00,,,0.00,meteobridge,2013-07-28 00:37:00,
2013-07-27 20:42:00,70.3,64.2,30.00,South,171,0.9,6.0,81,0.00,,,0.00,meteobridge,2013-07-28 00:42:00,
2013-07-27 20:47:00,70.2,64.0,30.00,SSE,163,0.9,2.9,81,0.00,,,0.00,meteobridge,2013-07-28 00:47:00,
2013-07-27 20:53:00,70.0,63.9,30.00,SSW,197,2.0,6.0,81,0.00,,,0.00,meteobridge,2013-07-28 00:53:00,
2013-07-27 20:58:00,69.6,63.5,30.00,South,184,4.9,4.9,81,0.00,,,0.00,meteobridge,2013-07-28 00:58:00,
2013-07-27 21:03:00,69.4,63.7,30.00,SSW,193,2.0,4.0,82,0.00,,,0.00,meteobridge,2013-07-28 01:03:00,
2013-07-27 21:09:00,69.4,63.7,30.00,SSW,209,4.0,4.0,82,0.00,,,0.00,meteobridge,2013-07-28 01:09:00,
2013-07-27 21:14:00,69.3,63.5,30.01,SE,142,0.9,6.9,82,0.00,,,0.00,meteobridge,2013-07-28 01:14:00,
2013-07-27 21:19:00,69.1,63.3,30.01,SSE,165,2.0,2.0,82,0.00,,,0.00,meteobridge,2013-07-28 01:19:00,
2013-07-27 21:24:00,68.9,63.5,30.01,SE,125,0.0,2.0,83,0.00,,,0.00,meteobridge,2013-07-28 01:24:00,
2013-07-27 21:29:00,68.7,63.3,30.01,SE,142,0.9,4.9,83,0.00,,,0.00,meteobridge,2013-07-28 01:29:00,
2013-07-27 21:34:00,68.5,63.1,30.02,SSE,148,2.0,2.9,83,0.00,,,0.00,meteobridge,2013-07-28 01:34:00,
2013-07-27 21:39:00,68.5,63.5,30.02,ESE,111,0.0,2.0,84,0.00,,,0.00,meteobridge,2013-07-28 01:39:00,
2013-07-27 21:44:00,68.4,63.3,30.02,East,101,0.0,0.9,84,0.00,,,0.00,meteobridge,2013-07-28 01:44:00,
2013-07-27 21:50:00,68.2,63.5,30.02,East,101,0.0,0.0,85,0.00,,,0.00,meteobridge,2013-07-28 01:50:00,
2013-07-27 21:55:00,68.2,63.5,30.02,East,101,0.0,0.0,85,0.00,,,0.00,meteobridge,2013-07-28 01:55:00,
2013-07-27 22:01:00,67.8,63.5,30.02,East,101,0.0,0.0,86,0.00,,,0.00,meteobridge,2013-07-28 02:01:00,
2013-07-27 22:07:00,67.6,63.3,30.01,East,101,0.0,0.0,86,0.00,,,0.00,meteobridge,2013-07-28 02:07:00,
2013-07-27 22:12:00,67.5,63.5,30.01,East,101,0.0,0.0,87,0.00,,,0.00,meteobridge,2013-07-28 02:12:00,
2013-07-27 22:18:00,67.3,63.3,30.01,East,101,0.0,0.0,87,0.00,,,0.00,meteobridge,2013-07-28 02:18:00,
2013-07-27 22:23:00,66.9,63.3,30.01,East,101,0.0,0.0,88,0.00,,,0.00,meteobridge,2013-07-28 02:23:00,
2013-07-27 22:28:00,66.6,63.1,30.01,East,101,0.0,0.0,89,0.00,,,0.00,meteobridge,2013-07-28 02:28:00,
2013-07-27 22:33:00,66.4,63.0,30.01,East,101,0.0,0.0,89,0.00,,,0.00,meteobridge,2013-07-28 02:33:00,
2013-07-27 22:39:00,66.4,63.0,30.01,East,101,0.0,0.0,89,0.00,,,0.00,meteobridge,2013-07-28 02:39:00,
2013-07-27 22:44:00,66.2,63.1,30.01,East,101,0.0,0.0,90,0.00,,,0.00,meteobridge,2013-07-28 02:44:00,
2013-07-27 22:49:00,66.0,63.0,30.00,East,101,0.0,0.0,90,0.00,,,0.00,meteobridge,2013-07-28 02:49:00,
2013-07-27 22:54:00,65.8,62.8,30.00,East,101,0.0,0.0,90,0.00,,,0.00,meteobridge,2013-07-28 02:54:00,
2013-07-27 23:00:00,65.7,63.0,30.00,East,101,0.0,0.0,91,0.00,,,0.00,meteobridge,2013-07-28 03:00:00,
2013-07-27 23:05:00,65.5,62.8,30.00,East,101,0.0,0.0,91,0.00,,,0.00,meteobridge,2013-07-28 03:05:00,
2013-07-27 23:10:00,65.3,62.6,30.00,East,101,0.0,0.0,91,0.00,,,0.00,meteobridge,2013-07-28 03:10:00,
2013-07-27 23:15:00,64.9,62.6,30.00,East,101,0.0,0.0,92,0.00,,,0.00,meteobridge,2013-07-28 03:15:00,
2013-07-27 23:21:00,64.8,62.4,30.00,East,101,0.0,0.0,92,0.00,,,0.00,meteobridge,2013-07-28 03:21:00,
2013-07-27 23:27:00,64.8,62.4,29.99,East,101,0.0,0.0,92,0.00,,,0.00,meteobridge,2013-07-28 03:27:00,
2013-07-27 23:32:00,64.6,62.2,29.99,East,101,0.0,0.0,92,0.00,,,0.00,meteobridge,2013-07-28 03:32:00,
2013-07-27 23:37:00,64.4,62.4,29.99,East,101,0.0,0.9,93,0.00,,,0.00,meteobridge,2013-07-28 03:37:00,
2013-07-27 23:42:00,64.2,62.2,29.98,East,101,0.0,0.0,93,0.00,,,0.00,meteobridge,2013-07-28 03:42:00,
2013-07-27 23:48:00,64.0,62.1,29.98,East,101,0.0,0.0,93,0.00,,,0.00,meteobridge,2013-07-28 03:48:00,
2013-07-27 23:53:00,64.0,62.1,29.98,East,101,0.0,0.0,93,0.00,,,0.00,meteobridge,2013-07-28 03:53:00,
2013-07-27 23:59:00,63.9,61.9,29.98,East,101,0.0,0.0,93,0.00,,,0.00,meteobridge,2013-07-28 03:59:00,